Location: Chassagnes
(44.4047°N, 4.1657°E)
Time: 12:31:19
(UTC+00:00)

YAOGAN 1 - Pass Details

Date: 27 October 2020
Orbit: 618 x 620 km, 97.9° (Epoch: 23 November)

Event Time Altitude Azimuth Distance (km) Brightness Sun altitude
Rises 18:15:56 0° 163° (SSE) 2,884 5.8 -17.8°
Reaches altitude 10° 18:18:06 10° 162° (SSE) 1,982 5.0 -18.2°
Maximum altitude 18:22:25 82° 76° (ENE) 633 2.4 -19.0°
Drops below altitude 10° 18:26:46 10° 349° (N) 1,997 5.3 -19.7°
Sets 18:28:58 0° 348° (NNW) 2,908 6.2 -20.1°
